618  
ASUS41 KRLX 241210  
RWRRLX  
WEST VIRGINIA REGIONAL WEATHER ROUNDUP  
NATIONAL WEATHER SERVICE CHARLESTON WV  
800 AM EDT SAT JUN 24 2017  
 
NOTE: "FAIR" INDICATES FEW OR NO CLOUDS BELOW 12,000 FEET WITH NO  
SIGNIFICANT WEATHER AND/OR S TO VISIBILITY
.  
 
WVZ003-241300-  
NORTHERN PANHANDLE OF WEST VIRGINIA  
 
CITY SKY/WX TMP DP RH WIND PRES REMARKS
 
WHEELING PTSUNNY 65 62 90 W7 29.88R  

 
 
WVZ009-241300-  
NORTHWEST WEST VIRGINIA  
 
CITY SKY/WX TMP DP RH WIND PRES REMARKS
 
PARKERSBURG PTSUNNY 66 63 90 SW5 29.94R  

 
 
WVZ006-241300-  
WESTERN WEST VIRGINIA  
 
CITY SKY/WX TMP DP RH WIND PRES REMARKS
 
HUNTINGTON CLOUDY 69 66 90 W3 29.94R  

 
 
WVZ015-241300-  
WEST CENTRAL WEST VIRGINIA  
 
CITY SKY/WX TMP DP RH WIND PRES REMARKS
 
CHARLESTON PTSUNNY 67 65 93 W6 29.95R  

 
 
WVZ022-031-241300-  
NORTH CENTRAL WEST VIRGINIA  
 
CITY SKY/WX TMP DP RH WIND PRES REMARKS
 
CLARKSBURG PTSUNNY 67 62 84 W8 29.91R  
MORGANTOWN PTSUNNY 68 64 87 VRB6 29.91R  

 
 
WVZ025-035-042-045-241300-  
SOUTHERN WEST VIRGINIA  
 
CITY SKY/WX TMP DP RH WIND PRES REMARKS
 
BECKLEY CLOUDY 63 60 90 W6 30.01R  
LOGAN CLOUDY 64 64 100 CALM 29.98R  
BLUEFIELD CLOUDY 62 59 90 W8 30.03R  
LEWISBURG CLOUDY 64 60 88 W6 29.98R FOG  

 
 
WVZ047-241300-  
NORTHERN MOUNTAINS OF WEST VIRGINIA  
 
CITY SKY/WX TMP DP RH WIND PRES REMARKS
 
ELKINS PTSUNNY 64 58 80 SW6 29.95R  

 
 
WVZ052-241300-  
EASTERN PANHANDLE OF WEST VIRGINIA  
 
CITY SKY/WX TMP DP RH WIND PRES REMARKS
 
MARTINSBURG CLOUDY 73 64 73 W10 29.78R  
PETERSBURG LGT RAIN 71 67 84 CALM 29.85R  

 
 
 
CLICK HERE TO GO TO PREVIOUS BULLETINS.

The Nexlab WV Page
The Nexlab OH Page
The Nexlab KY Page
The Nexlab VA Page Main Text Page